Weather reports worldwide

Advertisment
Estepona, Spain (8463): temperature & dewpoint: 18.06.2018 16:00:00 - 24.06.2018 16:00:00 (CEST)Estepona, Spain (8463): wind speed & gusts: 18.06.2018 16:00:00 - 24.06.2018 16:00:00 (CEST)Estepona, Spain (8463): wind direction: 18.06.2018 16:00:00 - 24.06.2018 16:00:00 (CEST)Estepona, Spain (8463): reduced air pressure: 18.06.2018 16:00:00 - 24.06.2018 16:00:00 (CEST)Estepona, Spain (8463): visibility: 18.06.2018 16:00:00 - 24.06.2018 16:00:00 (CEST)Estepona, Spain (8463): sunshine duration: 18.06.2018 16:00:00 - 24.06.2018 16:00:00 (CEST)Estepona, Spain (8463): precipitation: 18.06.2018 16:00:00 - 24.06.2018 16:00:00 (CEST)
Date & Time tt [°C] td [°C] ff [km/h] ff [kn] fx [km/h] fx [kn] dd ppp [hPa] vv [km] sd [min] rr [mm]
24.06.2018 16:00:00 29,3 17,1 3 2 10 5 S 1016,2 12 0 0,0
24.06.2018 15:00:00 27,8 16,7 4 2 10 5 SE 1016,6 18 0 0,0
24.06.2018 14:00:00 27,7 16,6 6 3 12 6 ESE 1017,3 12 0 -
24.06.2018 13:00:00 27,8 16,4 8 4 14 8 E 1017,6 12 33 0,0
24.06.2018 12:00:00 27,0 16,0 8 4 16 9 E 1017,6 15 60 0,0
24.06.2018 11:00:00 25,5 15,8 10 6 17 9 E 1017,5 13 60 0,0
24.06.2018 10:00:00 23,8 15,3 6 3 13 7 ENE 1017,2 12 60 0,0
24.06.2018 09:00:00 21,9 16,0 3 1 4 2 ENE 1016,7 6 57 0,0
24.06.2018 08:00:00 19,9 15,3 1 1 4 2 S 1016,2 9 0 -
24.06.2018 07:00:00 19,7 14,0 0 0 7 4 N 1015,8 10 0 0,0
24.06.2018 06:00:00 20,0 14,3 4 2 10 5 WSW 1015,3 13 0 0,0
24.06.2018 05:00:00 21,3 14,2 2 1 8 4 SW 1015,4 8 0 0,0
24.06.2018 04:00:00 22,4 13,2 5 3 14 8 NE 1015,6 11 0 0,0
24.06.2018 03:00:00 23,4 11,4 6 3 25 14 NE 1016,3 16 0 0,0
24.06.2018 02:00:00 23,8 10,4 10 6 23 13 NE 1017,0 17 0 -
24.06.2018 01:00:00 23,4 12,1 11 6 25 13 NE 1017,4 18 0 0,0
24.06.2018 00:00:00 23,1 13,3 9 5 22 12 ENE 1017,2 8 0 0,0
23.06.2018 23:00:00 21,8 14,2 8 4 17 9 ENE 1016,7 11 0 0,0
23.06.2018 22:00:00 22,9 15,3 8 4 21 12 ENE 1016,2 11 0 0,0
23.06.2018 21:00:00 24,0 15,3 16 8 24 13 ENE 1015,9 14 34 0,0
23.06.2018 20:00:00 25,7 13,9 14 8 29 15 ENE 1015,8 18 60 -
23.06.2018 19:00:00 25,8 13,3 16 9 25 13 E 1015,7 14 60 0,0
23.06.2018 18:00:00 26,7 14,1 17 9 26 14 E 1015,9 20 60 0,0
23.06.2018 17:00:00 26,6 14,0 13 7 22 12 E 1016,3 15 48 0,0
23.06.2018 16:00:00 27,0 15,1 12 7 24 13 ENE 1016,7 13 0 0,0
23.06.2018 15:00:00 27,2 15,3 13 7 24 13 ENE 1017,2 19 0 0,0
23.06.2018 14:00:00 25,8 16,0 16 9 24 13 SE 1017,8 13 0 -
23.06.2018 13:00:00 25,4 16,0 14 8 27 15 E 1018,3 16 13 0,0
23.06.2018 12:00:00 25,4 15,7 13 7 28 15 E 1018,0 20 60 0,0
23.06.2018 11:00:00 24,9 14,3 18 10 31 17 E 1017,6 13 60 0,0
23.06.2018 10:00:00 24,4 12,6 13 7 22 12 ENE 1017,5 14 60 0,0
23.06.2018 09:00:00 23,9 12,2 10 5 19 10 ENE 1017,0 16 60 0,0
23.06.2018 08:00:00 21,9 10,6 8 5 16 9 NE 1016,9 19 21 -
23.06.2018 07:00:00 21,1 9,9 6 3 14 7 NE 1017,0 18 0 0,0
23.06.2018 06:00:00 21,4 10,3 6 3 14 7 NE 1016,6 17 0 0,0
23.06.2018 05:00:00 21,9 10,4 6 4 16 8 NE 1016,7 17 0 0,0
23.06.2018 04:00:00 21,1 10,9 7 4 13 7 NE 1017,0 18 0 0,0
23.06.2018 03:00:00 20,4 11,9 5 3 8 5 NE 1017,4 14 0 0,0
23.06.2018 02:00:00 21,0 13,0 6 3 10 5 E 1017,6 10 0 -
23.06.2018 01:00:00 21,8 12,6 5 3 17 9 NE 1017,8 13 0 0,0
23.06.2018 00:00:00 23,3 10,4 10 5 20 11 NE 1017,8 18 0 0,0
22.06.2018 23:00:00 22,2 10,3 7 4 15 8 NE 1017,8 16 0 0,0
22.06.2018 22:00:00 22,3 12,8 8 4 16 9 ENE 1016,9 12 0 0,0
22.06.2018 21:00:00 23,7 15,0 9 5 14 8 ENE 1016,8 14 56 0,0
22.06.2018 20:00:00 25,8 13,0 6 4 12 7 E 1016,5 14 60 -
22.06.2018 19:00:00 27,3 13,9 5 3 9 5 E 1016,3 16 60 0,0
22.06.2018 18:00:00 27,2 13,6 4 2 11 6 SE 1016,8 15 60 0,0
22.06.2018 17:00:00 27,3 13,7 4 2 10 5 ESE 1017,0 14 6 0,0
22.06.2018 16:00:00 27,6 14,9 4 2 12 7 WSW 1017,4 18 0 0,0
22.06.2018 15:00:00 27,3 15,6 4 2 11 6 SW 1017,5 20 0 0,0
22.06.2018 14:00:00 26,4 16,0 5 3 11 6 ESE 1017,9 20 0 -
22.06.2018 13:00:00 - - - - - - - - - - -
22.06.2018 12:00:00 25,4 13,3 6 3 9 5 SW 1018,3 20 60 0,0
22.06.2018 11:00:00 24,7 13,3 4 2 7 4 SW 1018,4 17 60 0,0
22.06.2018 10:00:00 22,5 12,4 3 2 5 3 SW 1018,4 20 60 0,0
22.06.2018 09:00:00 19,9 13,6 3 1 6 3 W 1018,0 17 60 0,0
22.06.2018 08:00:00 19,0 13,9 3 1 5 3 WSW 1017,9 13 18 -
22.06.2018 07:00:00 19,1 13,1 3 2 8 4 ENE 1017,6 11 0 0,0
22.06.2018 06:00:00 - - - - - - - - - - -
22.06.2018 05:00:00 18,7 13,8 4 2 8 4 WSW 1017,5 14 0 0,0
22.06.2018 04:00:00 18,9 13,6 2 1 5 3 W 1018,0 9 0 0,0
22.06.2018 03:00:00 - - - - - - - - - - -
22.06.2018 02:00:00 19,8 13,3 4 2 10 5 NE 1018,9 15 0 -
22.06.2018 01:00:00 19,9 13,4 5 3 10 5 ENE 1019,1 9 0 0,0
22.06.2018 00:00:00 20,1 14,7 4 2 11 6 NE 1019,2 9 0 0,0
21.06.2018 23:00:00 21,2 16,0 7 4 11 6 ENE 1018,7 9 0 0,0
21.06.2018 22:00:00 21,8 15,2 7 4 16 9 ENE 1018,2 12 0 0,0
21.06.2018 21:00:00 23,2 15,5 6 4 16 9 ENE 1017,7 13 56 0,0
21.06.2018 20:00:00 25,3 14,7 9 5 15 8 ENE 1017,6 15 60 -
21.06.2018 19:00:00 26,0 14,8 8 4 12 7 E 1017,7 16 60 0,0
21.06.2018 18:00:00 26,8 15,5 5 3 10 6 E 1018,2 14 60 0,0
21.06.2018 17:00:00 26,5 15,5 5 3 11 6 ESE 1018,4 16 5 0,0
21.06.2018 16:00:00 26,5 15,9 6 3 11 6 SE 1018,6 19 0 0,0
21.06.2018 15:00:00 26,4 16,3 6 3 11 6 E 1018,7 20 0 0,0
21.06.2018 14:00:00 25,8 16,9 6 3 12 7 E 1019,1 15 1 -
21.06.2018 13:00:00 24,1 16,4 7 4 16 9 E 1019,1 14 8 0,0
21.06.2018 12:00:00 24,8 16,5 10 5 23 12 E 1018,9 15 60 0,0
21.06.2018 11:00:00 24,6 15,3 7 4 21 11 E 1018,5 13 59 0,0
21.06.2018 10:00:00 23,4 14,1 15 8 26 14 ENE 1018,7 15 60 0,0
21.06.2018 09:00:00 23,0 13,5 11 6 21 11 ENE 1018,4 13 42 0,0
21.06.2018 08:00:00 22,5 8,5 9 5 21 11 NE 1017,7 19 0 -
21.06.2018 07:00:00 22,0 8,5 4 2 16 8 NE 1017,6 18 0 0,0
21.06.2018 06:00:00 21,2 11,2 5 3 13 7 NE 1018,6 12 0 0,0
21.06.2018 05:00:00 21,9 11,9 6 3 16 9 NE 1018,4 14 0 0,0
21.06.2018 04:00:00 23,2 8,5 7 4 19 10 NE 1017,8 19 0 0,0
21.06.2018 03:00:00 22,7 9,8 7 4 19 10 NE 1018,6 20 0 0,0
21.06.2018 02:00:00 20,8 12,7 7 4 16 9 NE 1019,5 18 0 -
21.06.2018 01:00:00 20,3 15,1 4 2 16 9 ENE 1019,3 14 0 0,0
21.06.2018 00:00:00 21,6 13,0 8 5 21 11 NE 1018,9 13 0 0,0
20.06.2018 23:00:00 20,4 14,3 8 4 18 10 NE 1018,5 19 0 0,0
20.06.2018 22:00:00 20,8 14,9 8 5 22 12 E 1018,3 16 0 0,0
20.06.2018 21:00:00 22,1 14,7 14 7 25 14 E 1017,8 17 55 0,0
20.06.2018 20:00:00 23,7 14,7 10 5 28 15 E 1017,9 17 60 -
20.06.2018 19:00:00 24,9 14,6 16 8 27 14 ENE 1017,4 14 60 0,0
20.06.2018 18:00:00 25,4 14,2 15 8 23 12 E 1018,0 15 60 0,0
20.06.2018 17:00:00 25,7 13,9 11 6 19 10 E 1018,4 17 5 0,0
20.06.2018 16:00:00 25,8 14,2 11 6 19 10 E 1018,5 20 0 0,0
20.06.2018 15:00:00 25,7 15,1 10 5 15 8 E 1019,0 20 0 0,0
20.06.2018 14:00:00 24,5 14,6 9 5 14 8 E 1019,6 19 0 -
20.06.2018 13:00:00 25,8 14,9 9 5 18 10 E 1020,0 15 5 0,0
20.06.2018 12:00:00 23,9 14,3 9 5 24 13 ESE 1019,8 17 50 0,0
20.06.2018 11:00:00 24,0 13,3 13 7 26 14 E 1019,3 19 60 0,0
20.06.2018 10:00:00 22,6 13,4 16 8 29 16 E - 15 42 0,0
20.06.2018 09:00:00 22,7 12,6 9 5 18 10 ENE - 15 37 0,0
20.06.2018 08:00:00 21,1 12,3 8 5 21 11 ENE - 15 25 -
20.06.2018 07:00:00 20,0 12,3 8 4 22 12 NE - 18 0 0,0
20.06.2018 06:00:00 20,4 12,6 10 6 - - ENE - 11 - -
20.06.2018 05:00:00 20,2 12,7 10 5 23 12 NE - 18 0 0,0
20.06.2018 04:00:00 20,6 12,1 10 5 24 13 ENE - 14 0 0,0
20.06.2018 03:00:00 20,9 13,4 11 6 23 12 NE - 19 0 0,0
20.06.2018 02:00:00 20,7 13,7 10 6 23 12 NE - 18 0 -
20.06.2018 01:00:00 20,3 13,7 9 5 22 12 ENE - 11 0 0,0
20.06.2018 00:00:00 21,0 13,2 10 5 27 14 ENE - 10 0 0,0
19.06.2018 23:00:00 21,0 13,4 10 5 25 13 NE - 18 0 0,0
19.06.2018 22:00:00 20,1 14,5 15 8 32 17 ENE - 13 0 0,0
19.06.2018 21:00:00 20,7 13,7 21 12 34 18 E - 15 55 0,0
19.06.2018 20:00:00 21,8 14,0 22 12 39 21 E - 13 60 -
19.06.2018 19:00:00 24,4 13,6 14 8 29 16 ENE - 13 60 0,0
19.06.2018 18:00:00 26,1 13,6 11 6 34 18 ENE - 20 60 0,0
19.06.2018 17:00:00 25,6 13,1 20 11 36 19 ENE - 14 5 0,0
19.06.2018 16:00:00 25,0 13,5 21 12 33 18 ENE - 20 0 0,0
19.06.2018 15:00:00 24,6 13,5 20 11 35 19 E - 11 0 0,0
19.06.2018 14:00:00 24,3 13,8 20 11 29 16 ENE - 14 0 -
19.06.2018 13:00:00 - - - - - - - - - - -
19.06.2018 12:00:00 25,0 12,6 18 10 29 15 ENE - 11 60 0,0
19.06.2018 11:00:00 23,2 14,7 14 7 21 12 ENE - 11 60 0,0
19.06.2018 10:00:00 23,1 12,4 13 7 23 12 E - 13 60 0,0
19.06.2018 09:00:00 22,6 13,4 12 7 24 13 ENE - 11 60 0,0
19.06.2018 08:00:00 21,4 12,8 11 6 22 12 NE - 18 26 -
19.06.2018 07:00:00 21,6 10,7 10 5 27 15 NE - 17 0 0,0
19.06.2018 06:00:00 22,3 8,4 11 6 26 14 NE - 16 0 0,0
19.06.2018 05:00:00 22,5 8,2 11 6 24 13 NE - 19 0 0,0
19.06.2018 04:00:00 22,8 8,1 10 5 24 13 NE - 20 0 0,0
19.06.2018 03:00:00 22,9 9,0 10 6 21 11 NE - 11 0 0,0
19.06.2018 02:00:00 22,5 9,0 7 4 22 12 NE - 18 0 -
19.06.2018 01:00:00 22,7 8,8 8 4 27 15 NE - 15 0 0,0
19.06.2018 00:00:00 22,9 9,3 8 4 20 11 NE - 14 0 0,0
18.06.2018 23:00:00 22,5 10,0 9 5 20 11 NE - 13 0 0,0
18.06.2018 22:00:00 21,2 12,6 7 4 15 8 ENE - 14 0 0,0
18.06.2018 21:00:00 23,0 12,9 7 4 18 10 E - 12 55 0,0
18.06.2018 20:00:00 24,9 12,2 11 6 22 12 E - 4,0 60 -
18.06.2018 19:00:00 26,1 11,1 11 6 25 13 E - 6 60 0,0
18.06.2018 18:00:00 26,2 11,5 11 6 19 11 E - 20 44 0,0
18.06.2018 17:00:00 26,5 10,2 12 7 21 12 E - 9 14 0,0
18.06.2018 16:00:00 26,8 12,1 5 3 12 6 SE - 14 0 0,0

tt = temperature
td = dewpoint
ff = wind speed
fx = gusts
dd = wind direction
ppp = reduced air pressure
vv = visibility
sd = sunshine duration
rr = precipitation

Next stations